Wind_Speed
13 12 11 9 8 7 7 8 10 11 11 12 12 12 14 17 19 18 18 18 18 17 16 14 13 15 16 15 14 14 14 14 14 13 12 12 12 12 12 12 11 11 11 11 10 10 11 13 14 14 14 14 13 12 11 11 12 13 13 13 13 12 11 11 11 11 12 11 11 12 13 13 13 12 11 10 9 9 9 9 9 10 10 9 8
11 11 11 9 9 8 7 9 10 11 12 12 12 12 14 17 18 19 19 19 19 18 16 13 12 13 14 14 14 14 14 14 15 14 13 12 12 12 12 12 12 12 11 11 11 11 11 12 13 14 14 14 13 12 11 11 12 13 13 13 13 12 12 11 11 11 12 12 11 11 13 13 12 12 11 10 9 8 8 10 10 11 10 9 8
11 12 12 11 10 9 8 9 10 11 12 11 11 11 13 16 18 19 19 19 19 18 15 12 11 12 13 13 13 13 14 15 15 15 14 13 12 12 12 12 12 12 12 12 11 11 12 12 13 13 13 13 13 12 11 11 12 13 13 13 13 12 12 12 12 12 12 12 12 11 12 12 12 11 10 9 9 8 8 10 11 11 11 10 9
14 14 14 13 12 10 9 10 10 11 12 11 11 11 13 16 19 19 19 19 19 17 14 12 12 12 13 12 13 14 15 15 16 15 14 13 13 12 11 12 12 12 12 12 12 12 12 13 13 14 14 14 13 12 11 11 12 13 13 13 13 12 11 11 12 12 12 12 12 12 12 12 11 11 10 9 9 7 8 10 11 12 12 11 10
16 16 16 15 13 12 11 10 11 12 13 13 13 12 13 16 19 19 19 19 19 17 15 14 14 14 14 14 16 17 17 17 16 15 14 13 13 12 11 12 12 13 13 13 13 12 13 13 14 14 14 14 13 13 12 11 12 13 13 12 11 11 10 10 11 11 11 11 11 11 11 11 11 10 9 9 8 7 7 10 12 12 12 12 11
17 17 17 16 16 15 12 11 11 12 13 14 14 12 13 15 18 19 19 19 19 17 16 16 16 17 17 17 18 18 18 17 16 15 14 13 13 12 11 12 13 13 13 13 13 13 14 14 15 15 15 14 14 13 12 12 13 13 12 11 10 9 9 9 10 10 11 11 11 10 10 10 9 9 8 7 7 7 7 10 12 13 12 12 12
16 16 15 15 15 15 14 13 13 13 14 15 14 13 13 15 17 19 19 20 19 18 18 18 18 19 19 18 18 17 16 16 16 16 15 14 13 12 12 13 14 15 14 14 14 14 15 15 15 15 15 14 13 12 12 12 12 12 11 10 9 9 8 8 9 10 11 11 11 10 9 8 8 7 6 5 6 7 8 10 12 12 12 12 12
16 15 15 14 13 12 13 14 14 14 15 15 15 15 15 16 17 18 19 20 20 19 19 19 19 19 19 18 17 17 16 16 16 16 15 15 15 14 14 14 15 15 15 15 15 15 15 15 15 15 15 14 13 12 11 11 12 12 11 10 9 8 9 9 10 10 11 11 10 9 7 6 6 6 5 5 6 7 8 10 12 13 12 12 12
16 16 16 16 14 13 14 15 13 13 14 16 17 17 17 17 18 18 19 21 21 20 19 19 18 18 17 17 17 17 17 17 17 17 16 15 15 16 15 15 15 15 15 15 15 15 15 15 15 15 14 14 13 12 12 12 12 11 11 9 8 8 9 10 11 10 10 10 9 8 7 6 5 5 4 4 5 7 8 10 12 13 12 12 12
17 16 17 17 17 17 17 16 13 12 14 16 18 17 17 17 18 19 20 21 22 21 19 18 17 17 16 16 17 17 17 18 18 18 17 16 16 16 16 15 15 15 15 14 14 14 14 14 14 14 14 13 13 13 12 12 12 11 10 9 8 8 9 11 11 11 11 10 9 8 7 6 6 5 4 4 5 6 7 9 11 13 13 12 12
18 17 17 19 19 19 18 16 13 12 12 14 16 17 17 17 18 19 21 22 23 22 20 18 17 16 16 16 17 18 18 18 19 18 18 17 16 17 16 16 16 15 15 14 14 13 13 13 13 14 13 13 13 12 12 12 11 11 10 9 9 9 9 10 11 11 11 10 9 9 8 7 6 6 5 4 5 6 7 8 10 12 12 12 11
22 20 19 19 20 18 17 15 13 10 10 11 15 17 17 18 19 20 21 22 23 22 21 19 17 16 16 16 18 18 18 18 18 18 17 16 16 16 16 16 16 16 15 14 13 13 13 13 13 13 13 12 12 11 11 11 11 10 10 10 10 10 10 10 10 10 10 10 9 9 8 7 7 6 5 5 5 6 7 8 9 11 12 12 11
25 22 21 20 20 19 17 16 13 10 9 11 14 17 18 19 20 20 21 23 24 23 21 20 18 16 16 17 18 19 19 18 17 17 17 16 15 15 16 16 15 15 14 14 13 13 13 13 13 13 13 12 11 11 11 11 11 10 10 10 10 10 10 9 9 9 8 7 7 7 7 7 8 7 6 6 6 6 7 7 8 10 11 11 10
26 25 23 22 21 20 19 17 15 13 12 12 14 17 19 20 20 21 22 23 24 24 23 21 19 17 17 17 18 19 19 18 17 17 16 16 15 15 14 14 14 14 14 14 13 13 13 13 13 13 12 12 11 11 11 10 10 10 10 10 10 9 9 9 9 8 8 7 6 5 5 6 7 8 8 7 6 7 7 7 7 8 9 10 9
27 25 24 23 22 22 21 19 18 16 15 14 15 17 19 20 21 22 23 24 25 25 24 22 20 18 17 18 18 19 19 19 18 17 16 15 15 14 14 13 13 13 14 14 13 13 13 13 13 13 12 12 11 11 11 11 11 11 10 10 10 10 10 9 9 8 8 7 7 6 6 6 6 7 8 8 8 8 7 7 7 8 8 8 8
28 26 25 24 23 24 23 22 21 19 17 16 15 16 19 21 22 22 23 24 25 26 26 24 22 19 18 19 19 19 19 19 19 18 17 16 15 14 13 12 12 13 13 14 13 13 13 13 13 13 13 12 12 11 11 12 11 11 11 11 11 10 10 9 8 8 8 7 7 8 7 7 7 7 8 8 9 8 8 8 7 7 8 8 7
29 28 27 26 25 24 24 24 23 22 19 17 17 17 18 21 23 23 24 24 26 27 27 26 23 21 20 20 20 20 19 20 20 20 19 18 16 15 14 13 13 13 13 14 13 13 13 13 13 13 13 13 13 12 12 12 12 12 12 11 11 11 10 9 8 8 8 8 8 8 8 8 9 8 8 8 8 9 8 8 8 8 7 7 7
27 28 29 27 26 26 26 26 26 25 23 21 20 20 20 21 23 25 25 25 26 27 28 27 25 23 21 21 21 21 21 21 21 21 20 19 17 16 15 15 15 14 14 14 14 14 14 14 14 14 14 13 13 13 13 13 12 12 12 12 11 11 11 10 9 9 8 7 7 7 8 8 9 9 8 8 8 8 8 7 7 8 8 7 7
26 27 28 28 27 28 28 29 29 29 28 27 25 24 23 22 22 24 26 27 28 28 29 28 27 25 23 23 23 23 22 22 22 21 21 20 19 18 17 16 16 15 14 14 14 14 14 15 14 14 14 14 14 14 13 13 13 12 12 12 11 11 11 11 10 9 8 7 7 7 7 8 9 9 9 8 8 8 8 7 7 7 7 7 7
26 27 28 29 29 29 29 30 31 31 31 30 28 27 26 24 23 24 27 28 29 29 29 29 28 27 26 25 24 24 24 23 22 22 21 21 21 20 19 18 17 16 15 15 14 15 15 15 16 15 15 15 14 14 14 14 14 13 13 12 12 12 12 11 10 9 8 7 7 7 7 8 8 8 8 8 8 9 9 8 6 6 6 6 6
27 27 28 29 30 30 29 29 30 31 31 31 30 29 27 26 24 24 26 28 30 30 30 30 30 29 27 27 26 26 26 25 24 23 23 22 22 21 20 20 19 18 17 16 15 15 16 16 17 17 16 15 15 14 15 15 14 14 13 13 13 12 11 10 9 8 7 6 6 6 6 6 7 7 8 8 8 9 9 9 7 6 5 5 5
28 28 29 30 30 29 29 29 30 31 32 32 32 31 29 28 27 25 25 27 30 32 32 32 32 31 29 28 28 28 28 27 25 24 24 23 22 22 22 21 20 19 19 18 17 16 16 17 17 18 17 16 15 15 15 16 15 15 14 13 13 13 12 10 9 8 7 6 5 5 5 4 5 5 6 7 8 9 10 10 9 7 6 5 5
29 29 29 30 30 29 30 31 31 31 32 32 32 32 31 30 29 28 26 25 27 31 34 35 34 33 32 30 29 29 29 28 26 26 25 25 24 24 23 22 22 21 20 19 18 17 17 17 18 18 18 17 16 15 15 16 16 16 15 14 14 14 12 11 10 9 8 7 6 5 5 4 3 4 4 5 6 8 9 10 10 9 8 7 6
31 30 30 30 31 31 32 33 33 33 32 32 32 31 31 31 30 29 27 25 25 29 34 37 36 35 34 33 31 30 30 29 28 27 27 27 27 26 25 24 23 23 22 21 20 18 18 18 18 19 19 18 17 16 16 16 17 17 16 15 15 14 13 12 11 10 9 8 8 7 6 5 4 4 4 4 4 5 6 7 8 9 9 9 9
33 31 30 31 31 32 33 35 35 35 34 33 32 32 32 31 30 29 29 28 27 27 30 35 38 38 37 35 33 32 31 30 30 29 29 30 29 28 27 26 25 24 23 22 21 20 19 19 20 20 20 20 19 17 16 16 17 18 17 16 16 15 14 13 13 12 11 10 9 9 8 7 7 6 5 5 4 4 4 5 6 7 8 10 10
36 33 31 31 32 33 34 36 37 37 36 35 34 34 33 32 31 31 30 30 30 29 29 32 37 39 39 38 37 35 33 32 32 32 32 32 31 30 29 27 26 25 24 23 22 21 20 20 21 22 22 21 20 19 17 17 18 18 18 17 17 16 16 15 15 14 13 12 11 11 10 9 9 8 7 6 6 5 5 5 5 5 6 8 10
40 38 33 32 34 35 34 35 38 38 38 37 36 35 35 33 32 32 31 30 30 30 30 31 34 38 40 40 39 38 36 35 35 34 34 33 33 32 30 29 28 27 27 25 23 22 22 22 23 23 23 23 22 20 19 18 18 19 19 19 18 18 17 17 16 16 15 14 13 12 12 11 10 9 8 8 7 6 6 6 5 5 5 6 8
44 43 38 34 36 38 36 36 37 39 40 40 38 37 36 35 33 33 32 31 30 30 29 29 31 35 39 41 41 41 40 39 38 37 35 34 33 32 32 32 31 30 28 27 26 25 25 25 25 25 25 24 23 21 20 19 19 20 21 21 20 20 19 18 18 17 16 16 15 14 14 13 11 10 9 8 8 8 7 7 7 6 6 7 7
46 46 42 38 39 40 39 38 37 38 40 40 40 39 38 37 35 34 33 33 33 32 31 30 29 31 36 40 42 42 42 42 41 39 37 35 34 34 33 33 33 31 31 30 29 28 27 27 26 26 26 26 25 23 22 21 20 21 22 22 22 22 21 20 20 19 18 17 17 16 15 14 13 11 10 9 9 9 9 9 9 8 7 8 8
48 47 44 42 41 43 43 41 39 38 39 40 41 40 40 39 37 36 36 36 35 35 34 32 30 29 32 37 41 42 43 43 42 41 40 38 36 36 35 34 34 33 33 32 31 30 29 28 27 28 27 27 26 24 24 23 22 22 23 24 24 24 24 23 22 21 20 19 19 18 17 16 14 12 11 11 10 10 10 10 9 8 8 9 9
48 48 47 44 44 45 46 45 43 41 40 40 41 41 41 41 40 39 38 38 37 37 36 34 33 31 31 33 37 41 43 43 43 42 41 40 39 38 37 36 35 35 34 34 33 31 30 30 29 29 28 27 26 26 25 25 24 23 24 25 26 26 26 25 24 23 22 22 21 20 18 17 15 14 13 13 12 11 11 11 10 9 8 8 9
48 49 48 47 46 47 49 49 47 45 43 42 42 42 41 41 41 41 40 40 39 39 38 36 35 34 33 32 34 38 41 42 42 43 42 42 41 40 39 38 37 36 36 35 34 33 32 31 31 30 29 28 27 27 27 26 25 25 25 25 27 28 28 28 27 26 25 24 23 22 20 18 17 16 15 15 14 13 13 13 12 11 9 9 9
48 49 49 48 47 47 50 52 52 50 47 46 45 45 44 43 42 42 42 41 42 42 41 38 37 36 34 33 32 34 37 40 41 42 43 43 43 42 41 40 39 38 37 36 35 35 34 33 32 31 30 30 29 29 29 28 27 27 26 26 27 28 29 30 30 29 27 26 25 24 22 20 19 19 18 17 16 16 15 15 13 12 11 11 11
47 49 49 49 48 48 49 52 54 53 51 49 48 48 47 46 45 44 43 43 43 44 42 39 38 37 35 34 33 32 33 36 39 41 42 43 43 43 42 42 41 40 39 37 37 36 35 35 34 33 32 31 31 31 30 30 29 28 28 28 28 29 30 31 31 31 30 29 28 26 24 23 22 21 20 20 19 19 18 17 15 14 14 14 14
47 48 49 49 49 49 49 51 53 54 54 53 51 50 50 49 48 46 45 44 43 42 41 39 38 38 37 37 35 32 32 33 36 38 40 41 42 42 42 42 42 41 40 39 38 38 37 36 35 34 33 32 31 31 31 30 30 30 30 29 28 28 29 30 32 33 33 32 31 29 27 26 25 24 23 23 23 22 22 20 18 17 17 17 16
48 49 49 49 50 51 51 52 52 53 54 55 54 53 53 53 51 48 45 44 43 41 41 41 40 40 40 39 37 35 33 33 34 35 36 38 40 41 42 43 43 43 42 41 41 40 39 38 37 35 34 32 32 32 32 31 30 31 31 30 29 28 28 29 31 32 33 34 33 32 30 29 28 27 27 27 26 25 24 23 21 21 21 20 19
50 50 50 50 52 53 53 53 53 53 53 54 55 55 55 55 54 51 47 45 43 42 42 42 41 42 42 41 39 38 36 35 35 34 35 37 39 40 42 43 43 44 43 43 43 42 41 40 39 37 35 33 32 33 33 32 31 32 32 31 29 28 28 28 29 31 32 34 34 33 32 32 31 30 30 30 30 29 27 25 25 24 24 23 22
52 53 53 53 54 55 54 54 54 54 54 54 54 55 56 56 56 54 51 47 45 44 44 44 44 44 43 42 41 40 39 39 38 37 37 37 39 40 41 42 43 44 44 44 45 44 43 42 41 38 36 34 33 33 33 32 32 32 32 31 29 28 28 27 28 29 30 32 33 34 34 34 33 32 33 33 33 32 30 28 28 28 26 25 25
53 54 55 55 55 56 57 56 56 56 56 56 55 55 56 56 56 56 54 51 48 47 47 47 47 46 44 43 44 43 43 43 42 41 41 40 39 39 40 41 43 44 44 45 45 45 44 43 42 40 38 36 35 34 34 33 33 33 33 31 30 29 28 27 27 28 29 30 31 33 35 35 35 35 36 36 36 35 34 32 32 31 29 27 28
55 56 57 58 58 58 58 59 59 58 57 58 57 56 56 57 56 56 55 53 51 50 49 49 49 48 47 46 46 46 46 47 47 46 45 44 42 41 40 40 42 43 44 45 45 45 44 43 42 41 40 39 37 36 36 36 35 35 34 33 32 30 28 28 28 29 29 29 29 31 33 35 37 38 39 40 39 38 37 36 35 33 31 31 33
58 58 59 59 60 59 59 60 61 61 60 59 59 59 59 59 57 56 55 55 53 51 50 50 51 51 50 49 48 48 48 50 52 52 49 47 46 44 42 41 42 42 44 44 45 45 44 43 43 42 42 41 40 39 39 39 38 37 36 34 33 30 29 30 30 31 31 30 30 30 31 33 36 38 40 41 41 40 38 37 36 35 34 35 36
61 62 62 62 62 62 61 60 61 63 62 61 60 60 60 60 59 58 56 55 54 53 51 51 51 52 53 53 51 50 50 50 52 53 51 48 49 48 45 43 43 43 44 44 44 45 44 44 43 42 42 41 41 41 41 41 40 39 38 37 34 33 32 33 33 33 32 32 32 32 32 34 36 37 38 40 40 39 37 35 35 36 36 36 37
64 65 65 65 64 64 63 62 62 63 63 63 62 62 61 61 61 60 58 56 55 54 53 52 51 51 52 53 53 53 53 52 50 49 48 46 49 51 48 45 44 45 44 44 44 43 43 43 43 42 41 40 40 40 41 41 41 41 40 39 37 36 36 36 35 35 34 34 34 34 35 36 37 37 38 39 39 38 36 35 35 36 36 36 37
66 67 68 69 68 67 66 65 64 64 63 63 62 63 64 63 63 62 61 59 58 56 55 54 53 51 51 52 53 53 54 53 50 49 47 45 46 51 53 49 47 46 44 43 43 42 42 41 41 41 40 39 39 39 40 40 41 41 41 40 39 38 38 38 38 37 36 36 36 36 37 38 39 38 38 39 39 37 35 35 35 36 37 37 36
68 69 70 72 72 71 70 69 68 67 66 64 62 62 64 65 65 64 63 62 61 59 57 57 56 54 53 52 53 54 54 52 49 48 48 46 46 51 54 52 49 47 45 42 41 40 39 38 38 39 39 39 39 39 40 39 39 39 39 39 39 39 39 39 39 38 38 38 38 39 40 40 40 39 39 39 38 37 36 36 36 37 37 37 36
69 70 71 72 74 75 74 72 71 71 70 69 66 63 62 64 66 65 64 63 63 62 60 59 58 57 55 53 52 53 53 51 49 49 48 45 43 44 47 48 47 46 45 42 40 39 38 37 36 37 38 39 39 39 39 38 37 37 37 37 38 38 38 39 39 38 37 38 39 40 41 41 41 40 40 38 37 36 35 35 35 35 34 34 34
69 71 72 72 73 75 77 76 76 75 74 74 73 69 65 63 64 65 65 64 64 64 63 61 60 58 56 54 52 52 51 51 51 50 49 47 44 40 39 42 43 43 44 43 40 40 38 36 35 36 36 38 39 39 39 38 37 37 37 37 38 38 39 39 38 37 36 37 38 40 40 40 40 39 37 36 35 34 33 32 32 32 32 31 31
70 71 73 74 74 75 77 78 79 79 79 79 78 77 73 67 64 65 65 64 65 66 66 65 63 61 58 56 53 52 51 51 52 52 51 51 49 45 42 41 40 41 43 44 42 40 39 37 35 35 36 37 38 38 36 36 36 37 37 38 39 39 40 40 38 37 37 38 38 38 38 37 36 35 34 33 33 32 32 32 32 32 32 32 32
74 73 74 75 76 76 76 78 79 80 82 83 82 81 79 75 70 68 66 64 63 64 66 68 67 64 61 60 58 55 53 52 52 51 50 50 49 48 46 44 42 40 42 45 45 42 40 39 38 36 36 37 36 34 34 34 37 38 38 39 40 40 40 40 39 39 39 38 36 35 34 34 34 33 32 32 32 31 31 31 31 31 32 32 33
80 78 77 76 77 78 78 78 79 80 82 84 85 84 83 82 78 74 71 68 65 62 61 65 69 68 65 62 61 59 57 56 54 51 50 49 48 47 48 47 45 43 42 44 46 45 42 42 41 38 37 36 34 33 34 36 38 38 38 39 40 40 40 41 40 39 38 37 35 34 33 34 33 32 31 31 30 29 29 29 30 30 30 31 31
79 82 82 81 80 80 79 79 79 80 82 84 86 86 86 85 84 81 77 75 72 67 62 60 63 66 66 64 63 61 60 59 57 54 51 50 49 48 48 47 46 46 44 43 44 45 45 44 43 40 38 37 36 35 35 37 37 37 38 39 39 40 41 41 41 40 38 35 33 32 32 32 32 31 30 29 28 28 28 29 29 30 30 30 30
Wind_Direction
175 174 168 165 165 167 170 175 180 186 191 195 193 189 188 189 187 183 180 174 170 170 170 171 169 159 152 150 149 148 147 144 141 140 140 139 137 135 134 134 136 136 136 138 142 148 148 145 145 144 141 138 136 133 129 127 127 127 127 128 131 134 138 142 143 140 137 136 137 135 131 128 124 120 119 118 118 116 110 102 95 88 85 89 95
176 173 166 161 163 167 167 168 174 183 192 198 198 192 188 189 188 184 182 177 171 171 171 171 168 156 148 147 147 147 146 144 142 140 141 140 137 135 134 135 135 134 135 136 140 148 152 151 149 147 146 143 141 139 135 131 130 129 128 127 127 129 133 138 140 139 136 136 138 137 133 129 126 123 123 123 120 114 108 103 97 92 91 95 95
178 174 167 163 165 169 170 170 174 182 191 197 201 197 189 187 189 187 185 179 172 170 169 165 162 154 146 143 143 146 148 147 145 143 144 143 139 138 138 138 136 135 136 136 139 146 154 156 154 152 150 148 146 145 142 137 134 132 129 126 124 125 130 136 138 137 138 139 140 140 136 132 129 127 126 124 118 109 104 102 99 95 96 99 99
179 175 171 167 165 171 176 173 174 180 187 192 199 201 191 187 189 190 187 181 173 167 161 156 156 154 148 145 147 151 153 151 149 148 148 147 143 144 145 142 139 137 138 139 140 145 152 157 157 156 155 153 151 151 149 143 139 136 133 128 124 123 127 132 135 138 141 143 143 143 139 134 131 127 126 123 115 107 104 105 103 100 101 104 106
181 179 176 171 168 176 183 176 175 181 186 190 196 197 193 189 190 190 188 182 173 162 155 154 157 157 155 157 159 160 159 156 153 151 152 150 146 149 151 147 142 140 141 142 141 143 148 153 156 158 158 156 154 154 152 147 143 141 138 132 126 122 121 124 130 137 141 142 142 142 139 135 132 128 125 121 113 106 105 107 107 105 106 109 112
186 186 183 178 177 181 183 181 181 185 187 190 194 194 191 191 192 191 189 183 172 161 156 158 162 164 165 167 166 163 161 156 152 150 152 152 149 152 155 151 146 144 145 145 144 145 146 149 153 156 158 157 156 156 153 149 147 146 143 137 129 122 119 122 128 136 140 140 141 143 140 136 132 127 124 116 109 106 105 107 108 107 109 112 115
190 190 189 188 187 184 181 185 189 189 189 191 192 190 188 189 191 192 190 184 174 165 161 163 169 172 172 171 166 161 158 154 150 150 153 153 151 156 160 155 149 146 147 147 147 147 146 147 151 154 157 158 159 158 154 150 148 148 145 139 131 124 120 125 133 138 141 141 142 142 140 136 131 124 117 108 103 106 109 109 109 110 112 115 120
192 189 190 191 193 190 189 193 196 192 190 191 191 189 187 187 189 192 190 184 177 171 169 171 176 179 177 170 163 158 156 155 152 152 155 155 155 159 161 157 151 148 149 150 150 150 148 148 150 153 156 158 160 160 156 152 149 148 146 141 135 130 128 131 138 141 141 140 141 139 135 130 122 114 108 105 105 110 115 115 115 116 116 119 125
191 189 190 190 191 194 199 204 203 194 190 192 193 189 186 185 187 190 190 185 181 178 177 178 181 183 180 169 161 157 157 158 156 154 156 158 159 161 160 156 152 150 151 153 152 151 150 150 152 154 157 159 160 161 159 155 151 149 148 145 142 138 136 136 140 142 139 136 137 135 130 122 110 106 107 113 116 119 124 123 121 121 121 125 130
193 193 194 195 194 195 201 206 204 196 194 196 195 191 186 184 186 189 189 186 184 184 184 185 184 183 180 170 162 160 162 162 160 158 159 162 163 163 158 154 153 153 155 156 155 153 152 153 154 155 158 160 161 161 160 157 154 152 150 149 146 145 143 140 141 141 138 137 138 136 132 123 113 110 114 123 126 127 131 129 125 124 124 129 135
193 197 199 201 202 203 203 204 201 196 196 197 196 194 187 184 186 189 189 188 187 188 189 191 188 183 178 172 167 165 166 166 164 162 163 164 166 165 160 157 158 159 160 160 157 154 153 154 155 157 159 162 163 162 160 157 156 155 153 152 151 151 150 148 145 145 145 145 145 143 139 133 127 122 122 127 130 130 135 135 130 128 130 135 141
189 195 201 202 204 208 208 205 202 194 190 192 195 196 192 187 187 188 189 189 190 191 193 195 194 185 177 175 174 171 171 170 167 167 166 166 168 169 167 164 164 164 163 163 161 157 155 156 158 160 163 165 165 164 162 160 159 159 157 157 157 158 159 156 154 154 155 153 152 150 148 146 141 133 132 135 134 135 140 141 137 135 137 141 147
187 190 198 200 198 203 207 206 203 194 186 188 193 196 195 191 188 187 189 190 192 194 196 198 198 190 179 177 180 178 175 172 170 170 170 170 173 176 175 172 171 169 167 167 167 164 162 160 161 164 166 167 166 166 165 163 163 163 163 162 162 164 167 166 162 161 161 158 156 157 158 158 150 143 145 147 142 143 147 148 146 142 143 148 153
192 189 192 195 193 195 200 202 200 196 191 189 192 197 198 195 190 189 190 191 193 195 198 201 201 194 183 180 184 185 181 176 173 173 174 176 179 182 182 179 177 176 175 176 177 173 169 167 167 168 170 170 169 168 169 169 169 169 168 167 168 171 174 174 172 169 167 165 163 165 171 171 161 155 158 157 153 154 155 156 154 148 147 152 156
201 195 192 193 192 191 193 195 195 196 196 192 191 198 200 199 195 192 191 192 194 196 199 202 203 197 188 185 188 190 187 182 178 176 179 183 185 186 186 186 187 188 186 185 187 183 178 176 175 175 176 177 176 176 175 176 178 177 176 175 176 178 181 183 182 180 177 176 175 176 178 179 177 173 170 165 162 162 163 165 164 155 150 152 157
207 203 198 195 193 192 191 190 191 194 196 194 193 197 201 202 200 196 193 194 195 197 199 202 203 199 192 189 192 194 192 189 185 183 185 189 190 189 188 189 195 200 198 195 194 192 189 187 185 184 184 184 185 186 186 186 186 185 185 184 184 184 186 190 190 188 187 187 188 186 182 181 185 191 186 175 169 170 172 173 170 161 152 154 159
210 208 204 200 197 196 193 190 189 190 193 194 195 197 201 203 203 200 197 196 197 200 202 203 203 201 196 193 196 198 196 194 193 192 192 194 195 193 191 191 197 204 206 204 202 200 200 198 195 194 193 193 194 195 195 195 194 194 192 191 191 189 188 192 195 193 191 192 194 194 192 188 189 195 198 190 179 178 181 180 176 167 160 161 165
211 211 210 206 201 199 197 193 190 189 189 192 195 198 201 204 205 203 201 199 200 201 203 204 204 203 199 196 198 202 201 198 197 197 197 199 200 198 196 197 201 205 208 210 209 208 209 209 206 204 202 201 201 201 202 202 201 200 199 196 196 192 188 187 189 188 188 190 193 196 199 200 196 193 198 201 195 191 192 190 183 174 169 170 175
209 211 212 211 208 205 201 197 194 192 191 193 196 198 200 203 206 206 205 204 203 204 204 205 205 204 202 199 200 204 205 201 199 198 199 203 205 204 203 204 206 208 210 213 214 214 215 216 214 211 207 207 207 206 206 206 206 205 203 200 197 192 185 181 180 180 180 182 188 193 197 202 204 198 196 202 207 208 206 202 196 187 180 179 184
207 209 212 213 214 213 208 201 199 197 196 197 200 200 200 202 205 206 207 208 208 207 207 206 207 207 205 202 202 205 207 204 200 198 199 202 206 207 208 209 211 212 213 214 217 217 217 218 217 214 210 208 209 209 208 207 207 206 204 201 196 191 185 181 178 176 175 176 180 188 193 196 202 205 203 203 210 218 222 219 212 202 194 191 193
207 209 210 213 218 220 215 209 206 203 202 202 203 204 203 203 205 206 208 209 210 211 210 209 209 209 208 206 204 206 208 206 202 200 200 202 204 207 209 211 213 216 216 216 218 220 220 219 218 215 212 210 210 210 209 208 207 206 204 202 196 192 189 187 183 179 177 178 177 181 188 190 196 205 211 211 213 220 228 233 230 221 214 210 209
207 208 209 212 217 221 220 217 213 210 208 207 206 206 205 203 204 206 207 209 211 212 212 212 212 211 210 210 208 208 210 208 204 201 202 203 204 206 208 209 212 216 218 218 219 220 220 221 219 217 215 214 214 212 211 209 208 206 205 203 199 197 195 195 193 190 187 187 185 181 182 184 190 201 211 218 221 223 227 232 234 232 229 228 230
206 208 210 211 213 215 219 221 219 215 214 212 209 209 209 207 205 206 206 207 211 213 212 213 213 212 212 212 211 211 212 211 208 205 204 205 206 207 207 207 209 213 215 217 219 218 218 219 220 218 217 217 217 216 214 211 208 208 207 205 203 202 202 202 202 203 201 198 197 193 189 186 186 194 207 218 226 230 232 234 237 239 240 241 244
205 208 210 213 213 213 215 220 222 220 217 217 216 214 214 214 211 208 207 207 212 215 215 214 214 214 214 213 212 213 214 214 212 210 208 208 208 208 207 206 208 210 212 214 215 215 214 215 217 218 218 218 220 220 218 214 210 210 209 209 208 206 207 207 209 212 213 210 208 206 204 201 200 202 208 216 225 233 236 240 243 245 247 249 251
206 207 210 214 216 215 214 217 223 225 221 218 220 221 220 219 215 213 212 210 212 216 218 217 216 216 215 215 214 214 214 215 215 214 212 212 211 210 208 208 208 209 211 212 213 212 211 210 213 215 216 217 219 222 222 218 214 212 212 213 213 212 212 212 215 217 219 220 220 218 216 213 212 213 214 219 226 233 239 245 248 249 247 248 250
210 209 210 214 216 218 217 217 221 227 227 222 221 223 224 223 220 218 217 215 214 215 217 219 218 218 217 216 215 215 214 215 217 217 216 215 214 213 211 210 210 210 212 213 212 212 210 209 211 214 216 217 218 221 223 222 218 216 216 216 217 218 218 218 220 222 223 225 226 226 227 226 224 222 221 224 229 235 243 252 257 258 254 251 251
216 215 214 217 218 219 219 219 220 224 227 227 224 223 224 225 223 222 221 221 221 220 220 221 220 218 218 218 217 216 215 216 217 219 219 218 217 216 215 214 213 212 213 213 213 212 211 210 211 213 216 218 218 219 223 224 223 221 220 220 221 221 222 224 226 227 228 229 230 230 233 234 234 233 232 233 237 240 246 252 256 261 266 265 264
219 220 221 222 221 220 220 220 221 221 225 228 228 227 226 225 225 224 224 225 228 228 228 228 225 222 221 220 220 219 218 217 218 220 222 222 221 220 219 218 217 215 214 214 214 214 212 211 211 212 215 218 218 219 222 225 226 226 225 225 225 225 225 226 229 231 232 233 234 235 237 240 240 240 241 243 246 248 251 254 256 260 265 270 274
222 224 226 226 223 222 221 220 221 222 223 226 229 230 229 227 226 225 224 223 226 229 230 231 230 228 225 223 222 222 221 220 220 220 222 224 224 224 223 222 221 219 217 217 216 216 215 214 213 213 215 217 217 218 222 225 227 229 229 229 229 229 228 228 230 232 234 235 236 237 239 243 245 246 247 249 251 254 257 260 263 265 266 268 273
227 228 230 228 225 223 222 221 221 221 223 225 228 229 231 231 228 227 226 225 225 227 230 231 232 231 230 227 226 225 225 224 223 222 222 223 225 226 226 225 225 223 222 221 220 219 218 217 217 217 217 218 218 219 222 225 227 229 231 232 232 232 231 230 230 232 234 236 237 238 240 243 247 249 250 251 254 258 262 266 269 271 272 273 275
231 231 232 231 228 225 223 222 222 222 222 224 227 228 230 232 231 229 228 227 226 226 228 230 231 230 230 230 229 228 228 228 227 226 225 224 224 226 227 228 227 227 226 225 224 223 222 221 221 221 220 219 220 222 224 226 228 229 231 232 233 233 233 232 232 232 233 235 237 238 240 242 245 247 249 252 255 258 261 265 269 274 278 281 280
234 233 233 233 231 227 225 224 224 224 224 225 227 228 229 231 233 233 231 230 229 227 226 228 231 232 231 230 230 230 230 230 229 229 228 227 225 225 226 228 229 229 228 228 227 226 226 225 224 223 223 222 222 224 226 227 228 230 230 231 232 233 233 233 232 232 232 234 236 238 240 242 243 245 248 251 254 257 260 263 268 272 277 280 280
235 235 234 235 233 230 227 226 226 226 226 226 227 229 228 228 231 233 234 233 232 231 229 227 229 233 234 234 232 232 232 232 232 231 231 230 229 226 226 227 229 230 230 230 228 228 227 228 227 226 225 225 224 226 228 228 229 230 231 231 231 232 233 232 232 231 232 233 236 238 239 241 243 245 246 249 252 255 257 260 265 270 274 276 278
233 234 235 235 234 231 229 228 228 228 228 227 228 229 229 228 229 232 235 235 235 235 233 230 230 232 235 237 236 234 234 234 235 235 236 235 234 232 229 228 228 230 231 232 231 230 229 229 228 227 227 226 227 228 229 230 231 232 232 232 232 231 232 232 232 232 232 232 234 236 237 239 242 244 245 247 250 253 255 257 261 265 268 271 274
232 232 233 234 233 231 230 230 230 229 229 229 228 229 230 229 229 231 234 236 237 238 237 235 235 235 235 237 239 238 236 235 235 236 238 240 241 240 237 234 232 231 231 232 233 233 233 232 231 229 229 228 229 231 232 233 233 234 235 235 234 234 234 234 233 232 232 232 233 234 235 237 240 242 244 246 248 250 253 256 258 261 264 267 271
233 232 231 230 230 230 230 231 231 231 231 231 231 231 231 231 231 231 234 237 238 238 238 237 236 237 238 238 239 239 238 236 236 235 236 238 241 243 243 240 238 236 234 233 233 234 234 235 234 233 232 231 231 233 235 235 236 237 239 239 238 237 237 237 237 235 234 233 233 233 234 236 239 241 243 246 248 250 253 255 257 260 262 265 269
233 234 232 228 227 228 230 232 232 233 232 232 232 233 233 233 233 232 233 236 238 238 239 238 237 237 239 239 240 240 240 240 239 237 235 234 236 238 241 242 241 240 239 237 236 235 235 235 235 235 234 233 233 235 237 237 237 238 241 242 241 240 239 240 240 239 238 237 235 235 235 236 238 241 243 246 248 250 252 254 256 259 261 263 266
232 234 234 231 228 227 229 231 233 234 235 234 233 234 235 236 236 235 233 234 236 237 238 239 239 238 239 240 240 241 241 241 241 240 237 236 235 235 237 239 241 241 241 240 239 238 237 237 237 238 237 235 235 236 238 239 239 240 241 243 243 243 242 242 242 243 243 241 239 238 237 237 238 241 244 246 249 251 251 252 255 258 260 264 267
232 233 235 235 233 230 229 230 232 233 236 237 235 235 235 236 238 238 236 235 236 237 238 238 239 239 239 239 239 239 239 240 240 240 238 236 235 235 236 237 239 240 241 241 241 241 240 240 240 240 240 238 237 238 240 240 240 241 242 243 243 244 244 243 244 244 244 244 243 241 241 240 240 242 244 247 250 253 254 254 255 258 260 263 266
233 233 234 236 236 235 232 231 231 232 234 237 238 237 237 237 238 240 239 237 237 238 238 238 239 239 238 238 238 238 238 238 238 238 237 235 234 234 236 237 238 239 240 241 241 241 242 242 241 241 241 241 239 239 240 241 241 242 243 243 243 244 244 244 244 244 245 245 244 244 243 243 243 244 246 248 251 254 256 257 258 260 261 261 263
233 233 234 235 237 238 237 234 233 233 233 234 236 237 238 238 238 239 240 239 238 238 238 238 239 240 239 239 239 238 239 239 237 236 236 236 235 235 235 236 237 238 239 239 240 240 240 240 240 240 240 241 240 240 241 242 243 244 244 245 245 245 245 245 244 244 245 246 246 246 245 245 244 245 247 249 251 254 257 260 262 263 262 262 264
234 233 234 234 235 237 239 238 236 235 235 234 234 235 237 239 240 240 240 240 240 239 240 240 241 241 241 241 242 241 241 241 238 235 235 236 236 237 236 235 236 238 240 240 240 240 239 239 239 238 239 240 240 241 242 243 244 245 246 246 247 246 246 247 246 246 246 247 247 247 247 247 247 247 248 250 253 255 258 262 264 264 264 265 266
235 234 233 233 234 236 238 239 238 238 238 237 235 235 235 237 239 240 241 241 241 241 241 242 241 241 241 242 243 243 244 243 241 240 241 242 241 238 237 236 236 237 240 241 242 243 242 240 238 238 238 239 240 241 243 244 245 246 247 247 247 247 247 248 248 248 249 248 248 248 249 249 249 250 251 253 255 257 259 262 264 265 266 267 268
237 236 234 232 233 234 236 237 238 239 240 240 239 238 237 237 238 240 241 241 242 242 241 242 243 241 240 242 244 245 245 245 244 244 245 248 245 239 236 236 236 236 237 239 242 244 244 242 239 238 238 239 240 241 242 243 244 245 247 248 249 249 249 249 249 250 251 251 251 251 251 251 252 252 254 256 258 260 263 265 266 267 268 270 272
239 238 236 233 232 232 234 236 237 238 239 240 241 241 241 240 239 239 240 241 241 242 242 242 243 243 241 241 243 245 246 246 246 244 244 248 248 242 237 236 236 235 236 238 240 242 244 243 240 239 238 239 239 240 241 243 244 246 247 249 250 251 251 251 251 252 252 253 254 254 255 256 256 256 257 258 261 264 266 267 268 270 271 273 275
240 239 238 236 233 232 233 234 236 236 237 239 240 240 241 243 241 239 239 240 241 241 241 241 242 243 242 240 241 243 245 245 245 245 244 245 247 246 243 239 236 233 234 237 240 241 241 241 240 240 239 238 238 239 241 242 244 246 247 249 251 251 252 252 252 252 253 253 254 255 257 258 260 261 263 265 267 269 270 272 273 274 275 276 276
242 240 239 238 236 234 233 234 235 235 235 236 238 238 238 240 243 242 241 241 241 240 240 241 242 241 240 240 241 242 243 244 244 245 244 242 243 247 248 245 241 236 233 234 237 239 239 238 239 239 239 238 238 238 239 241 243 245 246 248 249 250 251 252 252 253 253 253 253 254 256 258 261 265 269 273 275 277 278 278 278 277 277 276 276
244 243 241 240 238 237 235 234 235 236 235 235 236 238 237 237 239 242 243 243 243 242 241 241 242 242 240 240 240 241 243 244 244 244 243 243 245 248 248 248 247 243 237 232 233 235 236 235 235 237 237 237 237 238 239 241 243 243 244 245 247 248 249 250 251 252 251 251 251 254 256 260 263 267 270 273 275 277 278 279 278 278 277 277 276
246 244 243 242 241 240 238 236 235 236 236 235 234 236 238 236 236 238 240 242 243 244 243 242 241 242 242 241 241 241 242 243 244 244 243 243 245 246 245 245 247 248 242 235 232 232 232 231 232 234 235 236 236 237 238 239 240 240 242 243 245 246 248 249 250 250 250 250 251 255 258 261 263 264 266 268 270 273 275 276 277 277 277 277 277
246 245 244 244 243 242 241 239 237 236 236 235 234 235 236 237 236 236 237 238 239 241 243 242 240 241 242 242 242 241 242 242 244 245 244 242 243 245 244 244 246 250 247 238 233 232 232 231 230 231 233 234 234 233 234 237 238 240 242 244 246 248 250 251 251 250 250 250 250 252 255 259 261 261 262 264 267 270 273 275 276 277 278 278 278
247 246 245 244 244 243 242 241 240 238 237 236 235 234 235 236 237 236 236 236 237 239 241 242 241 240 241 242 242 242 241 242 243 244 243 242 243 244 245 245 246 248 248 241 235 234 235 234 233 231 232 233 232 230 233 237 239 241 243 244 247 249 250 252 252 251 252 253 255 256 255 256 259 261 262 264 266 268 271 274 276 278 279 280 281
Height
5915 5916 5918 5919 5920 5921 5922 5923 5924 5925 5926 5928 5929 5930 5931 5932 5933 5934 5935 5936 5937 5938 5939 5939 5940 5940 5941 5942 5943 5944 5945 5946 5947 5948 5949 5949 5949 5950 5950 5951 5951 5952 5952 5953 5953 5954 5955 5956 5957 5957 5958 5958 5959 5959 5960 5961 5961 5962 5962 5963 5963 5964 5964 5964 5965 5965 5965 5965 5966 5966 5966 5966 5967 5967 5968 5968 5969 5969 5969 5969 5969 5969 5969 5969 5969
5915 5916 5917 5919 5920 5921 5922 5922 5923 5924 5925 5927 5928 5929 5931 5932 5933 5934 5935 5936 5937 5938 5939 5940 5941 5941 5942 5943 5944 5945 5946 5947 5948 5948 5949 5950 5950 5950 5951 5951 5952 5952 5952 5953 5954 5955 5955 5956 5957 5958 5958 5959 5959 5960 5961 5962 5962 5963 5963 5964 5964 5964 5965 5965 5965 5966 5966 5966 5967 5967 5967 5967 5968 5968 5969 5969 5970 5970 5969 5969 5969 5969 5969 5969 5970
5915 5916 5917 5918 5919 5920 5921 5921 5922 5923 5925 5926 5928 5929 5930 5931 5933 5934 5935 5936 5937 5938 5939 5940 5942 5942 5942 5943 5944 5945 5946 5947 5948 5948 5949 5950 5951 5951 5952 5952 5952 5952 5953 5953 5954 5955 5956 5956 5957 5958 5959 5959 5960 5960 5961 5962 5963 5963 5964 5964 5965 5965 5966 5966 5966 5966 5966 5967 5967 5968 5968 5968 5969 5969 5969 5970 5970 5970 5970 5970 5969 5969 5969 5970 5970
5913 5915 5916 5917 5918 5919 5920 5920 5921 5922 5924 5925 5927 5928 5929 5930 5932 5933 5935 5936 5937 5938 5940 5941 5942 5943 5943 5943 5944 5945 5946 5947 5948 5949 5950 5951 5951 5952 5953 5953 5953 5953 5954 5954 5954 5955 5956 5957 5957 5958 5959 5960 5960 5961 5962 5963 5963 5964 5964 5965 5965 5966 5966 5966 5966 5966 5967 5967 5968 5968 5969 5969 5969 5969 5970 5970 5970 5971 5970 5970 5970 5970 5970 5971 5971
5912 5913 5915 5916 5917 5918 5919 5920 5921 5922 5923 5924 5925 5927 5928 5929 5931 5933 5934 5936 5937 5939 5940 5941 5942 5943 5943 5943 5943 5944 5945 5946 5948 5949 5950 5951 5952 5953 5953 5954 5954 5954 5954 5955 5955 5956 5956 5957 5958 5958 5959 5960 5961 5962 5963 5963 5964 5964 5965 5965 5966 5967 5967 5967 5967 5967 5968 5968 5969 5969 5969 5969 5969 5970 5970 5970 5970 5971 5971 5970 5970 5971 5971 5971 5972
5912 5913 5914 5915 5916 5917 5918 5919 5920 5921 5922 5923 5924 5926 5927 5929 5931 5932 5934 5936 5937 5939 5940 5941 5942 5942 5942 5942 5943 5944 5945 5947 5948 5949 5951 5952 5952 5953 5954 5954 5954 5955 5955 5956 5956 5956 5957 5958 5958 5959 5960 5961 5961 5962 5963 5964 5964 5965 5965 5966 5966 5967 5967 5967 5967 5968 5968 5969 5969 5970 5970 5970 5970 5970 5971 5971 5971 5971 5972 5971 5971 5972 5972 5972 5973
5912 5913 5914 5915 5915 5916 5917 5918 5919 5920 5921 5922 5924 5925 5927 5928 5930 5932 5934 5935 5937 5939 5940 5940 5941 5942 5942 5943 5943 5945 5946 5948 5949 5950 5951 5952 5953 5954 5955 5955 5955 5955 5956 5956 5957 5957 5958 5958 5959 5959 5960 5961 5962 5963 5963 5964 5964 5965 5966 5966 5967 5967 5967 5968 5968 5968 5969 5969 5970 5970 5970 5971 5971 5971 5971 5971 5972 5972 5972 5972 5972 5973 5973 5974 5974
5911 5913 5913 5914 5915 5916 5917 5917 5918 5919 5920 5921 5923 5924 5925 5927 5929 5931 5933 5935 5937 5938 5939 5940 5941 5942 5942 5943 5944 5946 5947 5948 5949 5950 5951 5952 5953 5954 5955 5955 5955 5955 5956 5957 5958 5958 5958 5959 5959 5960 5961 5961 5962 5963 5963 5964 5964 5965 5966 5966 5967 5967 5968 5968 5968 5968 5969 5969 5970 5971 5971 5971 5971 5972 5972 5972 5972 5973 5973 5973 5973 5973 5974 5975 5975
5909 5911 5912 5913 5914 5915 5916 5917 5917 5919 5920 5921 5922 5923 5924 5926 5928 5931 5933 5935 5936 5938 5939 5939 5941 5942 5943 5944 5945 5946 5947 5948 5949 5950 5951 5953 5954 5955 5955 5955 5955 5956 5957 5957 5958 5958 5959 5959 5959 5960 5961 5962 5963 5963 5964 5964 5965 5965 5966 5966 5967 5967 5968 5968 5968 5969 5969 5970 5971 5971 5972 5972 5972 5972 5972 5973 5973 5973 5974 5974 5974 5974 5975 5976 5976
5907 5909 5911 5912 5913 5913 5914 5916 5917 5918 5919 5920 5921 5923 5924 5926 5927 5929 5932 5934 5935 5937 5938 5939 5940 5942 5943 5944 5945 5946 5947 5948 5949 5950 5951 5953 5954 5955 5955 5955 5955 5956 5957 5958 5958 5959 5959 5959 5960 5960 5961 5962 5963 5963 5964 5964 5965 5965 5966 5967 5967 5968 5968 5968 5969 5969 5970 5970 5971 5972 5972 5972 5972 5972 5973 5974 5974 5974 5975 5975 5975 5975 5976 5976 5977
5905 5907 5909 5911 5912 5913 5914 5915 5917 5918 5919 5920 5921 5923 5924 5925 5926 5928 5931 5933 5934 5936 5938 5939 5940 5942 5943 5944 5945 5946 5947 5948 5949 5949 5951 5952 5954 5954 5955 5955 5956 5956 5957 5958 5959 5959 5960 5960 5960 5961 5962 5962 5963 5963 5964 5964 5965 5965 5966 5967 5967 5968 5968 5969 5969 5970 5970 5971 5971 5972 5972 5972 5973 5973 5974 5974 5975 5975 5976 5976 5976 5976 5976 5977 5978
5901 5904 5906 5908 5911 5912 5914 5915 5917 5918 5919 5920 5921 5922 5924 5924 5926 5928 5930 5932 5933 5935 5937 5938 5940 5941 5943 5944 5944 5945 5946 5947 5949 5950 5951 5952 5954 5954 5955 5955 5956 5957 5958 5959 5960 5960 5960 5961 5961 5962 5962 5963 5963 5964 5964 5965 5965 5966 5966 5967 5968 5968 5969 5969 5970 5970 5971 5971 5972 5972 5973 5973 5973 5974 5974 5975 5975 5975 5976 5977 5977 5977 5977 5978 5978
5899 5902 5904 5906 5909 5911 5913 5914 5916 5918 5919 5919 5920 5921 5923 5924 5925 5927 5928 5930 5932 5934 5936 5937 5939 5940 5942 5943 5944 5945 5945 5947 5948 5950 5951 5952 5954 5955 5955 5956 5957 5958 5959 5960 5960 5961 5961 5961 5962 5962 5963 5963 5963 5964 5965 5965 5965 5966 5966 5967 5968 5969 5969 5969 5970 5971 5971 5972 5972 5973 5973 5974 5974 5974 5975 5975 5976 5976 5977 5977 5977 5977 5977 5978 5979
5899 5900 5902 5904 5906 5909 5911 5913 5915 5916 5918 5919 5920 5921 5922 5923 5924 5926 5927 5929 5931 5933 5935 5936 5938 5939 5941 5942 5943 5944 5945 5946 5948 5949 5951 5952 5953 5955 5956 5957 5958 5959 5960 5960 5961 5961 5962 5962 5963 5963 5963 5963 5964 5964 5965 5965 5966 5966 5967 5967 5968 5969 5970 5970 5970 5971 5972 5972 5973 5973 5974 5974 5974 5975 5975 5976 5976 5977 5977 5978 5978 5978 5978 5979 5979
5900 5901 5902 5903 5904 5906 5908 5911 5913 5915 5916 5918 5919 5920 5921 5923 5924 5925 5926 5928 5930 5931 5933 5935 5937 5938 5940 5941 5942 5943 5944 5946 5947 5949 5951 5952 5953 5955 5956 5958 5959 5960 5960 5961 5961 5962 5962 5963 5963 5963 5964 5964 5964 5965 5965 5966 5966 5966 5967 5967 5968 5969 5970 5970 5971 5971 5972 5972 5973 5974 5974 5975 5975 5975 5976 5976 5976 5977 5978 5978 5979 5979 5979 5979 5980
5899 5901 5902 5902 5903 5905 5907 5908 5910 5912 5914 5916 5918 5919 5920 5921 5922 5924 5925 5927 5928 5930 5932 5933 5935 5937 5939 5940 5942 5943 5944 5945 5947 5949 5950 5952 5953 5954 5956 5958 5959 5960 5960 5961 5961 5962 5963 5963 5963 5964 5964 5964 5964 5965 5965 5966 5966 5966 5967 5967 5968 5969 5969 5970 5971 5971 5972 5972 5973 5974 5974 5975 5975 5976 5976 5976 5977 5977 5978 5979 5979 5979 5980 5980 5981
5898 5900 5901 5901 5902 5904 5906 5907 5908 5911 5913 5914 5916 5917 5918 5919 5921 5923 5924 5925 5927 5928 5930 5932 5934 5936 5938 5939 5941 5942 5943 5945 5946 5948 5949 5951 5952 5954 5955 5957 5958 5959 5960 5961 5961 5962 5962 5963 5963 5963 5964 5964 5964 5965 5965 5966 5966 5966 5967 5967 5968 5968 5969 5970 5970 5971 5971 5972 5973 5974 5974 5975 5975 5976 5977 5977 5977 5977 5978 5979 5979 5980 5980 5980 5981
5898 5898 5899 5900 5901 5902 5904 5905 5906 5907 5909 5911 5912 5914 5916 5917 5919 5921 5922 5924 5925 5927 5929 5931 5933 5935 5937 5938 5939 5941 5942 5943 5945 5946 5948 5950 5952 5953 5954 5955 5956 5958 5959 5960 5961 5961 5962 5962 5963 5963 5963 5964 5964 5965 5965 5966 5966 5966 5967 5967 5968 5968 5969 5969 5970 5971 5971 5972 5973 5973 5974 5975 5975 5976 5977 5977 5977 5978 5978 5979 5980 5980 5980 5981 5982
5896 5897 5898 5899 5900 5900 5900 5901 5902 5903 5904 5906 5908 5910 5912 5915 5916 5918 5920 5922 5923 5925 5927 5929 5931 5933 5935 5936 5938 5939 5940 5942 5944 5945 5947 5949 5950 5952 5953 5954 5955 5956 5958 5959 5960 5960 5961 5962 5962 5962 5963 5963 5964 5964 5965 5965 5966 5966 5967 5967 5967 5968 5968 5969 5969 5970 5971 5972 5972 5973 5974 5975 5975 5976 5976 5977 5977 5978 5979 5979 5980 5980 5980 5981 5982
5894 5895 5896 5898 5898 5898 5899 5899 5900 5901 5901 5903 5905 5907 5909 5911 5913 5915 5917 5919 5921 5923 5925 5927 5929 5931 5932 5934 5936 5937 5939 5941 5942 5944 5945 5947 5948 5950 5952 5953 5954 5955 5956 5957 5958 5959 5960 5961 5961 5962 5962 5963 5963 5964 5964 5965 5965 5966 5966 5967 5967 5968 5968 5969 5969 5970 5971 5971 5972 5973 5973 5974 5975 5975 5976 5976 5977 5978 5979 5979 5980 5980 5980 5981 5982
5891 5893 5894 5896 5896 5898 5899 5900 5900 5901 5901 5901 5903 5904 5907 5908 5910 5913 5915 5917 5919 5921 5923 5925 5927 5928 5931 5932 5934 5935 5936 5938 5940 5942 5943 5945 5946 5948 5949 5951 5952 5953 5954 5955 5956 5958 5959 5959 5960 5960 5961 5962 5963 5963 5963 5964 5964 5965 5965 5966 5967 5967 5968 5969 5969 5970 5971 5971 5972 5972 5973 5973 5974 5975 5975 5976 5977 5977 5978 5979 5980 5980 5980 5981 5981
5889 5890 5892 5893 5895 5897 5899 5900 5900 5901 5901 5901 5901 5902 5905 5906 5907 5910 5912 5914 5916 5918 5920 5922 5924 5926 5928 5930 5932 5933 5934 5936 5938 5940 5941 5943 5944 5945 5947 5949 5950 5951 5952 5953 5954 5956 5957 5958 5959 5959 5960 5961 5962 5962 5962 5963 5964 5964 5965 5965 5966 5967 5968 5969 5969 5970 5970 5971 5971 5972 5972 5973 5973 5974 5974 5975 5976 5977 5977 5978 5979 5979 5980 5980 5981
5887 5888 5889 5891 5893 5895 5897 5898 5899 5900 5900 5901 5901 5902 5904 5905 5906 5907 5909 5912 5914 5915 5916 5918 5921 5923 5925 5927 5929 5931 5933 5935 5936 5938 5939 5940 5941 5943 5944 5946 5947 5948 5950 5951 5952 5954 5955 5956 5957 5958 5959 5960 5960 5961 5962 5962 5963 5963 5964 5965 5965 5966 5967 5968 5969 5970 5970 5971 5971 5971 5972 5972 5973 5973 5973 5974 5975 5976 5977 5977 5978 5979 5979 5980 5980
5884 5886 5887 5888 5890 5892 5894 5895 5896 5897 5899 5900 5901 5902 5904 5905 5907 5908 5908 5910 5912 5913 5914 5916 5918 5920 5922 5925 5927 5929 5931 5933 5935 5936 5937 5938 5939 5940 5941 5943 5944 5946 5947 5949 5950 5952 5953 5954 5956 5957 5958 5959 5959 5960 5960 5961 5962 5963 5963 5964 5965 5966 5966 5967 5968 5969 5970 5970 5970 5971 5971 5971 5972 5972 5973 5973 5974 5975 5975 5976 5977 5978 5978 5979 5980
5881 5883 5884 5886 5888 5890 5892 5893 5893 5894 5896 5898 5900 5901 5902 5904 5907 5907 5907 5907 5909 5910 5912 5914 5916 5917 5919 5922 5924 5926 5929 5931 5932 5933 5934 5935 5936 5937 5939 5940 5942 5944 5945 5947 5948 5950 5952 5953 5954 5955 5956 5957 5958 5959 5960 5960 5961 5962 5963 5964 5964 5965 5966 5966 5967 5968 5969 5969 5970 5970 5970 5971 5971 5972 5972 5973 5973 5974 5974 5975 5975 5976 5977 5978 5979
5878 5880 5881 5883 5885 5887 5889 5891 5891 5892 5893 5895 5897 5899 5901 5902 5904 5905 5906 5906 5907 5908 5910 5912 5914 5915 5917 5919 5921 5923 5926 5928 5929 5931 5932 5933 5934 5936 5937 5939 5940 5942 5943 5945 5947 5949 5950 5952 5953 5954 5955 5956 5957 5958 5959 5959 5960 5961 5962 5963 5964 5964 5965 5966 5966 5967 5967 5968 5969 5969 5970 5970 5970 5971 5971 5972 5972 5973 5973 5974 5974 5975 5975 5976 5977
5874 5876 5878 5880 5882 5884 5885 5887 5889 5890 5890 5892 5893 5896 5897 5899 5901 5903 5904 5906 5907 5907 5908 5910 5911 5913 5914 5916 5917 5920 5922 5924 5926 5927 5929 5931 5932 5934 5936 5937 5938 5940 5941 5943 5945 5947 5948 5949 5951 5952 5953 5955 5956 5957 5958 5959 5960 5961 5961 5962 5963 5964 5964 5965 5965 5966 5967 5967 5968 5968 5969 5969 5969 5970 5970 5971 5971 5972 5972 5973 5973 5974 5974 5975 5975
5870 5872 5874 5876 5878 5880 5882 5884 5886 5887 5888 5889 5890 5892 5894 5896 5898 5900 5902 5904 5905 5906 5907 5908 5909 5911 5912 5913 5915 5916 5918 5920 5922 5924 5926 5929 5931 5933 5934 5935 5936 5938 5939 5941 5943 5944 5945 5947 5948 5950 5951 5953 5954 5956 5957 5958 5959 5960 5961 5961 5962 5963 5963 5964 5965 5965 5966 5966 5967 5967 5968 5968 5968 5969 5969 5970 5970 5970 5971 5971 5972 5973 5974 5974 5974
5866 5868 5870 5872 5874 5876 5878 5880 5882 5884 5885 5886 5888 5889 5891 5893 5895 5897 5898 5900 5901 5903 5904 5906 5907 5909 5910 5911 5913 5914 5915 5917 5919 5921 5923 5926 5928 5930 5932 5933 5934 5936 5937 5938 5940 5941 5942 5944 5946 5947 5948 5950 5952 5954 5955 5956 5957 5958 5960 5960 5961 5962 5962 5963 5964 5964 5965 5965 5966 5966 5966 5967 5968 5968 5969 5969 5969 5969 5970 5970 5971 5972 5972 5973 5973
5862 5864 5866 5868 5870 5872 5874 5876 5878 5880 5882 5884 5885 5887 5888 5890 5892 5894 5895 5897 5898 5900 5901 5903 5905 5906 5908 5909 5910 5911 5913 5915 5916 5919 5921 5923 5925 5927 5928 5930 5932 5934 5935 5936 5937 5939 5940 5942 5944 5945 5946 5948 5950 5951 5952 5954 5955 5957 5958 5959 5960 5961 5961 5962 5963 5963 5964 5964 5964 5965 5965 5966 5967 5968 5968 5968 5968 5969 5969 5969 5970 5971 5971 5971 5972
5857 5859 5862 5863 5865 5867 5869 5872 5874 5876 5879 5881 5883 5884 5885 5887 5889 5891 5893 5894 5895 5896 5898 5900 5901 5902 5903 5905 5907 5909 5911 5913 5915 5916 5918 5920 5921 5923 5925 5927 5929 5930 5932 5933 5935 5936 5938 5940 5941 5943 5945 5946 5948 5949 5950 5951 5952 5954 5955 5957 5958 5959 5960 5961 5961 5962 5963 5963 5963 5964 5964 5965 5966 5967 5967 5968 5968 5968 5968 5969 5969 5970 5970 5970 5970
5852 5854 5856 5858 5861 5863 5865 5867 5870 5872 5875 5877 5879 5881 5883 5884 5885 5888 5889 5891 5892 5893 5894 5896 5897 5899 5900 5902 5904 5906 5908 5910 5912 5913 5915 5916 5918 5919 5921 5923 5925 5927 5928 5930 5932 5934 5935 5937 5938 5940 5942 5944 5946 5946 5947 5948 5950 5951 5953 5954 5955 5956 5957 5958 5959 5960 5961 5961 5962 5963 5964 5964 5965 5966 5966 5967 5967 5968 5968 5968 5968 5969 5969 5969 5969
5846 5848 5851 5853 5856 5858 5860 5863 5865 5867 5870 5873 5875 5877 5879 5880 5882 5884 5886 5887 5889 5889 5890 5893 5894 5896 5898 5900 5901 5903 5905 5907 5909 5910 5912 5913 5914 5916 5918 5920 5922 5924 5925 5927 5928 5930 5931 5933 5935 5937 5939 5941 5943 5944 5944 5946 5947 5948 5949 5951 5952 5953 5954 5955 5957 5958 5959 5960 5960 5961 5963 5963 5964 5964 5964 5965 5965 5966 5966 5967 5967 5968 5968 5968 5968
5840 5843 5845 5848 5850 5853 5855 5857 5860 5863 5865 5868 5870 5872 5874 5876 5878 5880 5882 5884 5885 5886 5888 5891 5892 5893 5895 5897 5899 5901 5903 5904 5906 5908 5909 5911 5912 5914 5916 5917 5918 5920 5922 5924 5926 5927 5928 5929 5931 5933 5935 5937 5939 5941 5942 5943 5944 5946 5946 5947 5949 5950 5951 5952 5954 5955 5956 5957 5958 5959 5961 5961 5962 5962 5963 5963 5963 5963 5964 5965 5966 5966 5966 5966 5966
5834 5837 5839 5842 5845 5847 5850 5852 5854 5857 5860 5862 5865 5867 5869 5871 5874 5876 5878 5880 5882 5884 5887 5889 5890 5890 5891 5893 5896 5898 5900 5901 5902 5904 5906 5909 5911 5913 5914 5915 5916 5917 5918 5920 5922 5924 5926 5927 5928 5929 5931 5934 5936 5938 5939 5941 5942 5943 5943 5944 5946 5947 5948 5949 5951 5952 5953 5954 5955 5956 5958 5959 5959 5960 5960 5960 5961 5961 5961 5962 5963 5964 5964 5964 5964
5828 5831 5834 5837 5839 5842 5844 5846 5849 5852 5854 5857 5860 5862 5864 5865 5868 5872 5875 5877 5880 5882 5883 5884 5886 5886 5887 5889 5892 5895 5896 5897 5898 5900 5902 5904 5907 5910 5911 5913 5914 5914 5915 5917 5918 5920 5922 5924 5925 5927 5929 5931 5933 5934 5936 5938 5939 5940 5940 5941 5943 5945 5946 5947 5948 5949 5950 5951 5952 5953 5955 5956 5957 5957 5958 5958 5958 5958 5959 5960 5961 5961 5961 5962 5962
5822 5824 5828 5831 5834 5836 5839 5841 5844 5846 5849 5852 5855 5857 5859 5860 5863 5868 5872 5874 5876 5878 5879 5880 5882 5882 5883 5886 5889 5891 5893 5894 5895 5896 5897 5899 5901 5904 5906 5908 5910 5911 5913 5914 5915 5916 5918 5919 5921 5923 5926 5928 5930 5931 5932 5934 5936 5937 5937 5939 5941 5942 5943 5945 5946 5946 5947 5948 5949 5950 5952 5953 5954 5954 5955 5955 5955 5956 5957 5958 5958 5958 5958 5959 5960
5817 5819 5821 5824 5828 5831 5834 5836 5839 5841 5843 5845 5848 5852 5854 5856 5858 5862 5866 5869 5872 5874 5875 5876 5877 5878 5880 5883 5885 5887 5889 5890 5891 5893 5894 5895 5896 5898 5899 5902 5904 5907 5909 5910 5912 5913 5914 5916 5918 5920 5923 5925 5927 5928 5929 5931 5933 5933 5934 5936 5938 5940 5941 5942 5943 5944 5945 5945 5946 5947 5948 5949 5951 5951 5951 5951 5951 5953 5954 5955 5955 5955 5956 5957 5957
5812 5814 5816 5818 5821 5824 5828 5831 5833 5836 5838 5840 5842 5845 5848 5851 5853 5856 5860 5864 5867 5869 5870 5871 5873 5874 5876 5878 5880 5882 5884 5885 5886 5888 5889 5890 5891 5892 5894 5896 5898 5901 5903 5905 5907 5909 5911 5913 5915 5917 5919 5922 5924 5925 5926 5928 5929 5930 5931 5933 5935 5937 5939 5940 5941 5941 5942 5943 5944 5945 5945 5946 5947 5947 5947 5947 5948 5949 5951 5952 5952 5952 5954 5955 5954
5806 5808 5810 5812 5814 5817 5821 5824 5827 5830 5832 5834 5837 5839 5842 5845 5848 5851 5854 5857 5861 5864 5865 5866 5868 5869 5871 5872 5874 5876 5877 5879 5880 5881 5882 5884 5886 5887 5889 5891 5893 5895 5898 5900 5902 5905 5907 5910 5912 5914 5916 5917 5920 5922 5923 5924 5925 5926 5927 5929 5931 5934 5936 5937 5938 5938 5939 5940 5941 5942 5942 5943 5944 5944 5943 5943 5944 5945 5947 5948 5949 5950 5952 5952 5950
5799 5801 5804 5806 5808 5810 5813 5816 5820 5823 5826 5828 5831 5833 5835 5838 5841 5845 5848 5851 5854 5858 5860 5861 5863 5864 5865 5867 5868 5870 5871 5873 5874 5874 5876 5879 5881 5883 5885 5886 5887 5889 5892 5894 5897 5899 5902 5904 5907 5909 5911 5913 5915 5918 5919 5920 5921 5923 5924 5926 5928 5931 5933 5933 5934 5935 5935 5937 5938 5939 5940 5940 5940 5940 5939 5939 5940 5942 5943 5944 5945 5947 5948 5948 5947
5791 5793 5796 5799 5802 5804 5806 5809 5812 5815 5818 5822 5825 5827 5829 5831 5834 5838 5842 5844 5848 5851 5854 5856 5858 5859 5860 5861 5863 5865 5866 5866 5866 5868 5872 5875 5877 5878 5880 5882 5883 5886 5888 5891 5893 5894 5896 5899 5901 5904 5906 5908 5911 5913 5914 5916 5917 5919 5920 5922 5925 5927 5928 5929 5930 5931 5932 5934 5935 5935 5936 5936 5935 5936 5936 5935 5936 5938 5940 5941 5942 5943 5944 5943 5943
5783 5785 5788 5791 5794 5797 5800 5802 5805 5807 5810 5814 5817 5820 5823 5825 5828 5831 5835 5838 5841 5845 5848 5850 5852 5853 5855 5856 5858 5859 5860 5860 5862 5865 5869 5872 5874 5875 5876 5877 5879 5882 5885 5888 5890 5891 5893 5894 5896 5899 5901 5904 5906 5908 5909 5911 5913 5915 5916 5918 5921 5923 5923 5924 5925 5927 5928 5930 5931 5931 5932 5931 5931 5932 5932 5932 5933 5934 5936 5938 5939 5939 5939 5939 5939
5775 5777 5779 5782 5786 5789 5792 5795 5797 5800 5802 5806 5810 5813 5816 5819 5821 5824 5828 5831 5835 5838 5841 5844 5845 5847 5850 5851 5852 5853 5854 5855 5859 5862 5865 5868 5869 5870 5870 5872 5874 5877 5880 5883 5885 5887 5889 5891 5893 5895 5897 5899 5901 5903 5904 5906 5908 5910 5912 5914 5916 5918 5918 5919 5920 5922 5924 5925 5926 5927 5926 5926 5926 5928 5928 5928 5929 5930 5933 5935 5935 5935 5935 5935 5935
5767 5769 5771 5773 5777 5781 5784 5787 5789 5792 5794 5798 5802 5806 5809 5812 5814 5818 5820 5824 5827 5831 5834 5837 5839 5841 5843 5846 5847 5848 5849 5852 5856 5858 5859 5862 5863 5862 5863 5866 5870 5873 5875 5878 5880 5882 5884 5887 5889 5891 5893 5894 5896 5898 5899 5901 5904 5906 5908 5910 5911 5912 5913 5913 5915 5917 5919 5920 5921 5921 5921 5921 5922 5923 5924 5924 5926 5927 5929 5930 5930 5930 5931 5931 5932
5759 5761 5763 5765 5768 5772 5776 5778 5781 5783 5786 5789 5793 5798 5802 5805 5807 5810 5813 5816 5820 5823 5827 5829 5832 5834 5837 5840 5842 5843 5845 5848 5851 5852 5855 5857 5857 5856 5857 5860 5865 5869 5871 5874 5876 5877 5879 5882 5884 5887 5888 5889 5891 5893 5895 5897 5899 5901 5903 5905 5906 5907 5907 5908 5909 5911 5913 5915 5915 5915 5915 5916 5917 5918 5919 5921 5923 5924 5925 5926 5926 5926 5927 5927 5927
5750 5753 5755 5757 5760 5764 5767 5770 5773 5775 5777 5780 5784 5789 5794 5798 5800 5803 5806 5809 5812 5815 5819 5822 5825 5828 5831 5834 5836 5838 5841 5844 5845 5847 5850 5852 5852 5852 5853 5854 5857 5862 5866 5869 5870 5872 5874 5877 5879 5882 5883 5884 5886 5888 5890 5892 5894 5895 5898 5899 5900 5901 5902 5902 5903 5906 5908 5908 5909 5909 5910 5911 5913 5914 5916 5917 5918 5919 5920 5921 5921 5921 5921 5921 5921
5741 5743 5746 5749 5752 5755 5758 5762 5765 5768 5769 5772 5775 5779 5784 5790 5794 5796 5799 5802 5804 5807 5811 5815 5818 5821 5825 5827 5830 5833 5836 5838 5840 5841 5845 5847 5847 5848 5849 5850 5852 5856 5860 5863 5865 5866 5869 5872 5874 5876 5877 5879 5881 5883 5885 5888 5889 5890 5892 5893 5894 5895 5896 5896 5898 5900 5901 5901 5903 5904 5906 5908 5910 5911 5912 5913 5914 5914 5915 5915 5915 5916 5916 5916 5916
5731 5734 5736 5739 5742 5746 5749 5752 5757 5759 5761 5764 5768 5770 5773 5778 5784 5788 5792 5795 5798 5800 5803 5807 5810 5814 5818 5820 5824 5827 5830 5832 5833 5836 5839 5841 5842 5844 5845 5847 5849 5851 5853 5857 5859 5861 5864 5866 5868 5870 5872 5874 5877 5879 5881 5881 5882 5883 5886 5887 5888 5889 5890 5891 5892 5893 5894 5896 5899 5901 5902 5904 5906 5907 5908 5908 5909 5910 5910 5910 5911 5911 5911 5911 5911
5721 5723 5727 5729 5732 5735 5738 5743 5747 5750 5752 5755 5759 5762 5764 5767 5773 5779 5783 5787 5791 5793 5796 5799 5802 5806 5810 5813 5817 5820 5823 5825 5827 5830 5833 5836 5837 5838 5840 5843 5846 5847 5849 5851 5854 5856 5859 5860 5862 5865 5868 5870 5873 5874 5874 5874 5876 5879 5881 5882 5883 5884 5885 5886 5886 5886 5888 5891 5894 5896 5898 5900 5901 5903 5904 5904 5905 5905 5906 5906 5906 5906 5906 5906 5906
5710 5713 5716 5718 5721 5724 5728 5732 5737 5740 5743 5746 5750 5754 5757 5759 5762 5767 5773 5778 5783 5786 5789 5792 5795 5798 5802 5805 5809 5813 5816 5819 5821 5824 5828 5831 5832 5834 5835 5839 5841 5843 5844 5846 5849 5852 5854 5855 5857 5861 5864 5866 5868 5869 5868 5870 5872 5875 5877 5878 5879 5879 5880 5880 5880 5880 5882 5887 5890 5892 5894 5895 5896 5898 5899 5900 5900 5901 5901 5901 5901 5901 5902 5902 5902